Le nostre stazioni meteo in Italia

Pubblicità
Il mio iltempo24.it
Capo Bellavista, Italia (16550): Temperatura & dewpoint: 10.07.2018 20:00:00 - 16.07.2018 20:00:00 (CEST)Capo Bellavista, Italia (16550): velocità del vento: 10.07.2018 20:00:00 - 16.07.2018 20:00:00 (CEST)Capo Bellavista, Italia (16550): direzione del vento: 10.07.2018 20:00:00 - 16.07.2018 20:00:00 (CEST)Capo Bellavista, Italia (16550): reduced air pressure: 10.07.2018 20:00:00 - 16.07.2018 20:00:00 (CEST)Capo Bellavista, Italia (16550): visibility: 10.07.2018 20:00:00 - 16.07.2018 20:00:00 (CEST)Capo Bellavista, Italia (16550): ore di luce: 10.07.2018 20:00:00 - 16.07.2018 20:00:00 (CEST)
Data & Tempo tt [°C] td [°C] ff [km/h] ff [kn] dd ppp [hPa] vv [km] sd [min]
16.07.2018 20:00:00 30,0 12,9 18 10 O 1011,6 20 18
16.07.2018 19:00:00 29,0 15,9 16 9 O 1011,9 20 12
16.07.2018 18:00:00 27,0 21,3 16 9 SSO 1012,3 16 54
16.07.2018 17:00:00 27,8 24,2 18 10 SSO 1011,0 16 36
16.07.2018 16:00:00 27,4 20,5 13 7 E 1010,2 20 12
16.07.2018 15:00:00 29,0 19,9 11 6 N 1014,0 20 0
16.07.2018 14:00:00 27,6 23,0 8 4 SO 1014,7 16 18
16.07.2018 13:00:00 30,8 21,6 4 2 SE 1013,5 16 48
16.07.2018 12:00:00 28,0 22,5 15 8 ENE 1014,0 20 0
16.07.2018 11:00:00 29,0 19,6 0 0 N 1014,2 20 0
16.07.2018 10:00:00 25,0 20,0 11 6 OSO 1014,9 16 0
16.07.2018 09:00:00 24,8 18,0 5 3 ESE 1013,5 18 0
16.07.2018 08:00:00 24,0 19,9 8 4 NO 1013,6 18 0
16.07.2018 07:00:00 23,0 20,3 11 6 O 1013,7 15 -
16.07.2018 06:00:00 24,4 22,5 2 1 SSE 1014,5 2,0 -
16.07.2018 05:00:00 24,0 21,9 5 3 S 1014,7 5 -
16.07.2018 04:00:00 24,2 22,3 13 7 SO 1013,6 5 -
16.07.2018 03:00:00 24,2 22,5 11 6 SO 1013,4 3,0 -
16.07.2018 02:00:00 24,8 23,0 9 5 SO 1014,0 0,3 -
16.07.2018 01:00:00 25,2 23,6 11 6 S 1014,5 0,4 -
16.07.2018 00:00:00 25,2 22,9 2 1 OSO 1015,4 18 -
15.07.2018 23:00:00 25,4 23,8 8 4 SO 1015,1 18 -
15.07.2018 22:00:00 25,8 24,2 11 6 SSO 1014,4 18 -
15.07.2018 21:00:00 26,0 23,1 13 7 SSO 1014,3 18 0
15.07.2018 20:00:00 27,6 23,6 11 6 S 1014,0 20 18
15.07.2018 19:00:00 28,8 23,9 9 5 S 1014,4 20 60
15.07.2018 18:00:00 29,0 24,3 15 8 S 1014,5 20 60
15.07.2018 17:00:00 30,0 23,7 13 7 S 1014,5 20 60
15.07.2018 16:00:00 30,2 23,6 13 7 S 1014,5 20 60
15.07.2018 15:00:00 30,4 22,8 11 6 SSE 1014,6 20 60
15.07.2018 14:00:00 30,0 23,4 13 7 S 1014,8 20 60
15.07.2018 13:00:00 34,0 22,4 4 2 OSO 1014,6 20 60
15.07.2018 12:00:00 33,4 20,9 2 1 N 1014,3 20 60
15.07.2018 11:00:00 32,4 20,7 5 3 SE 1014,4 20 60
15.07.2018 10:00:00 28,6 19,0 5 3 ESE 1014,8 20 60
15.07.2018 09:00:00 24,6 19,9 2 1 OSO 1014,3 20 60
15.07.2018 08:00:00 23,0 19,4 11 6 ONO 1014,3 20 0
15.07.2018 07:00:00 22,8 19,8 4 2 O 1014,2 20 -
15.07.2018 06:00:00 23,4 21,5 2 1 ONO 1013,4 20 -
15.07.2018 05:00:00 24,0 22,4 2 1 NNE 1013,1 20 -
15.07.2018 04:00:00 24,0 22,3 4 2 NE 1013,1 20 -
15.07.2018 03:00:00 24,0 22,4 2 1 N 1013,1 20 -
15.07.2018 02:00:00 24,0 22,8 5 3 N 1013,2 20 -
15.07.2018 01:00:00 24,6 23,4 4 2 SE 1013,3 20 -
15.07.2018 00:00:00 24,6 23,4 4 2 S 1013,4 20 -
14.07.2018 23:00:00 25,0 23,6 2 1 S 1013,3 20 -
14.07.2018 22:00:00 25,0 23,2 9 5 SSO 1013,7 20 -
14.07.2018 21:00:00 26,0 24,2 4 2 OSO 1013,6 10 -
14.07.2018 20:00:00 29,4 23,8 2 1 N 1013,4 30 60
14.07.2018 19:00:00 30,4 23,1 4 2 S 1013,8 30 60
14.07.2018 18:00:00 30,4 23,6 2 1 OSO 1014,4 30 60
14.07.2018 17:00:00 30,4 23,1 5 3 SSE 1014,8 20 60
14.07.2018 16:00:00 33,0 21,8 5 3 SE 1015,2 30 60
14.07.2018 15:00:00 34,0 20,4 5 3 SE 1015,4 30 60
14.07.2018 14:00:00 33,4 18,7 9 5 ESE 1016,7 20 60
14.07.2018 13:00:00 32,2 21,1 8 4 ESE 1016,7 20 60
14.07.2018 12:00:00 31,6 23,7 8 4 ESE 1016,7 20 60
14.07.2018 11:00:00 30,0 23,4 5 3 E 1016,6 20 60
14.07.2018 10:00:00 29,0 23,0 5 3 E 1016,9 20 48
14.07.2018 09:00:00 28,2 20,5 0 0 N 1016,4 25 36
14.07.2018 08:00:00 24,0 16,0 0 0 N 1016,2 25 0
14.07.2018 07:00:00 23,6 14,0 0 0 N 1016,3 25 0
14.07.2018 06:00:00 23,8 14,5 9 5 ONO 1016,3 25 -
14.07.2018 05:00:00 24,4 15,6 0 0 N 1016,3 20 -
14.07.2018 04:00:00 23,8 16,6 0 0 N 1016,2 20 -
14.07.2018 03:00:00 23,8 18,7 5 3 O 1016,6 20 -
14.07.2018 02:00:00 24,0 20,3 9 5 OSO 1016,6 20 -
14.07.2018 01:00:00 24,4 21,9 8 4 SSO 1016,6 20 -
14.07.2018 00:00:00 24,6 20,7 5 3 SSO 1017,7 20 -
13.07.2018 23:00:00 24,6 19,9 0 0 N 1017,5 30 -
13.07.2018 22:00:00 24,8 19,6 4 2 OSO 1016,4 30 -
13.07.2018 21:00:00 27,6 19,9 5 3 ESE 1016,5 30 12
13.07.2018 20:00:00 28,2 20,2 8 4 ESE 1016,5 30 60
13.07.2018 19:00:00 28,2 19,7 9 5 ESE 1016,7 30 60
13.07.2018 18:00:00 29,0 20,2 8 4 ESE 1016,7 30 60
13.07.2018 17:00:00 29,4 20,8 9 5 ESE 1016,9 20 60
13.07.2018 16:00:00 30,0 20,0 11 6 ESE 1017,0 25 60
13.07.2018 15:00:00 29,8 21,5 11 6 E 1017,0 25 60
13.07.2018 14:00:00 30,0 20,3 15 8 E 1017,1 25 60
13.07.2018 13:00:00 28,8 22,8 15 8 ESE 1017,2 25 60
13.07.2018 12:00:00 29,2 22,9 11 6 E 1017,3 25 60
13.07.2018 11:00:00 29,8 22,0 11 6 ENE 1017,3 20 60
13.07.2018 10:00:00 28,6 21,1 5 3 E 1017,1 25 60
13.07.2018 09:00:00 26,0 20,1 9 5 NE 1016,9 30 60
13.07.2018 08:00:00 25,0 20,9 9 5 ENE 1016,2 30 60
13.07.2018 07:00:00 23,0 20,7 13 7 NE 1016,3 20 -
13.07.2018 06:00:00 22,4 17,3 9 5 NNO 1016,4 20 -
13.07.2018 05:00:00 23,0 19,4 2 1 ONO 1016,4 20 -
13.07.2018 04:00:00 22,8 19,6 2 1 O 1016,4 20 -
13.07.2018 03:00:00 22,8 19,8 2 1 O 1016,3 20 -
13.07.2018 02:00:00 22,8 20,0 8 4 ONO 1016,4 20 -
13.07.2018 01:00:00 23,2 20,2 2 1 O 1016,4 20 -
13.07.2018 00:00:00 23,4 20,3 2 1 SSO 1016,4 20 -
12.07.2018 23:00:00 24,0 21,5 2 1 SO 1016,4 20 -
12.07.2018 22:00:00 24,4 20,7 4 2 S 1016,3 20 -
12.07.2018 21:00:00 26,0 20,1 4 2 ESE 1015,8 30 -
12.07.2018 20:00:00 28,6 20,1 2 1 SSE 1015,7 30 60
12.07.2018 19:00:00 29,0 20,5 2 1 SO 1015,7 30 60
12.07.2018 18:00:00 29,2 18,3 4 2 S 1015,9 30 60
12.07.2018 17:00:00 31,4 17,0 5 3 SE 1015,8 30 60
12.07.2018 16:00:00 32,4 15,4 9 5 ESE 1015,9 30 60
12.07.2018 15:00:00 33,0 21,5 11 6 ESE 1015,6 30 60
12.07.2018 14:00:00 32,4 20,0 11 6 E 1015,5 30 60
12.07.2018 13:00:00 30,6 18,7 9 5 E 1015,8 30 60
12.07.2018 12:00:00 31,4 16,2 13 7 ESE 1015,1 30 60
12.07.2018 11:00:00 30,0 19,1 8 4 ESE 1015,2 30 60
12.07.2018 10:00:00 28,6 19,2 8 4 ESE 1015,1 30 60
12.07.2018 09:00:00 26,4 20,5 4 2 ESE 1014,3 30 60
12.07.2018 08:00:00 24,0 19,4 0 0 N 1014,2 30 60
12.07.2018 07:00:00 22,4 14,3 0 0 N 1014,4 30 30
12.07.2018 06:00:00 22,6 20,0 0 0 N 1014,4 30 -
12.07.2018 05:00:00 22,4 14,3 0 0 N 1014,3 30 -
12.07.2018 04:00:00 23,2 19,5 4 2 N 1014,3 30 -
12.07.2018 03:00:00 24,0 22,0 16 9 NNE 1014,3 30 -
12.07.2018 02:00:00 24,8 21,2 13 7 NE 1014,1 30 -
12.07.2018 01:00:00 24,8 11,6 11 6 NNO 1013,9 30 -
12.07.2018 00:00:00 26,4 10,8 8 4 ONO 1013,6 30 -
11.07.2018 23:00:00 26,4 12,9 9 5 ONO 1013,2 20 -
11.07.2018 22:00:00 27,0 15,5 11 6 NO 1012,7 30 -
11.07.2018 21:00:00 27,0 18,6 11 6 NO 1012,5 30 30
11.07.2018 20:00:00 28,0 19,1 0 0 N 1012,4 30 60
11.07.2018 19:00:00 27,0 21,1 11 6 SSO 1012,5 30 60
11.07.2018 18:00:00 28,0 20,4 11 6 S 1013,0 30 60
11.07.2018 17:00:00 29,0 19,0 11 6 S 1013,0 30 60
11.07.2018 16:00:00 28,0 19,1 16 9 S 1013,1 30 60
11.07.2018 15:00:00 29,2 15,4 5 3 N 1013,7 30 60
11.07.2018 14:00:00 29,0 15,9 9 5 NO 1013,6 30 60
11.07.2018 13:00:00 29,0 18,3 8 4 NO 1013,6 30 60
11.07.2018 12:00:00 29,2 17,9 9 5 S 1013,1 30 60
11.07.2018 11:00:00 27,4 13,8 8 4 S 1013,1 20 60
11.07.2018 10:00:00 25,2 13,3 5 3 S 1013,2 30 60
11.07.2018 09:00:00 25,0 7,6 4 2 OSO 1013,2 30 60
11.07.2018 08:00:00 23,6 7,7 5 3 ONO 1013,3 30 60
11.07.2018 07:00:00 21,8 6,9 5 3 OSO 1013,4 20 -
11.07.2018 06:00:00 22,0 16,5 5 3 O 1014,4 20 -
11.07.2018 05:00:00 22,0 18,0 5 3 O 1014,3 20 -
11.07.2018 04:00:00 22,2 17,4 4 2 O 1014,4 20 -
11.07.2018 03:00:00 22,4 18,4 5 3 OSO 1014,4 20 -
11.07.2018 02:00:00 22,6 19,2 4 2 O 1014,3 20 -
11.07.2018 01:00:00 22,6 20,5 5 3 O 1014,3 20 -
11.07.2018 00:00:00 22,8 20,0 4 2 O 1014,3 20 -
10.07.2018 23:00:00 23,2 21,1 4 2 O 1014,3 20 -
10.07.2018 22:00:00 24,0 20,3 9 5 SSO 1013,5 20 -
10.07.2018 21:00:00 24,0 20,7 11 6 S 1013,6 20 -
10.07.2018 20:00:00 23,2 20,5 4 2 SO 1013,7 30 12

tt = Temperatura
td = dewpoint
ff = velocità del vento
dd = direzione del vento
ppp = reduced air pressure
vv = visibility
sd = ore di luce

Stazioni seguenti

WeatherPro
AMSI
MeteoEarth